Year,Month,Day,Hour,Minute,Value (Times are PST for windspeed in km/hr)
2016,10,07,00,00,61.90
2016,10,07,00,01,54.60
2016,10,07,00,02,52.70
2016,10,07,00,03,39.30
2016,10,07,00,04,44.40
2016,10,07,00,05,55.20
2016,10,07,00,06,59.20
2016,10,07,00,07,48.70
2016,10,07,00,08,48.30
2016,10,07,00,09,47.40
2016,10,07,00,10,51.80
2016,10,07,00,11,61.20
2016,10,07,00,12,43.90
2016,10,07,00,13,45.80
2016,10,07,00,14,55.60
2016,10,07,00,15,52.80
2016,10,07,00,16,55.70
2016,10,07,00,17,46.60
2016,10,07,00,18,50.20
2016,10,07,00,19,50.10
2016,10,07,00,20,54.60
2016,10,07,00,21,49.60
2016,10,07,00,22,53.40
2016,10,07,00,23,43.70
2016,10,07,00,24,49.60
2016,10,07,00,25,48.40
2016,10,07,00,26,39.30
2016,10,07,00,27,47.60
2016,10,07,00,28,46.30
2016,10,07,00,29,48.70
2016,10,07,00,30,53.80
2016,10,07,00,31,50.20
2016,10,07,00,32,52.70
2016,10,07,00,33,56.80
2016,10,07,00,34,51.20
2016,10,07,00,35,42.10
2016,10,07,00,36,52.40
2016,10,07,00,37,49.90
2016,10,07,00,38,50.70
2016,10,07,00,39,53.80
2016,10,07,00,40,52.10
2016,10,07,00,41,44.90
2016,10,07,00,42,44.70
2016,10,07,00,43,47.40
2016,10,07,00,44,42.10
2016,10,07,00,45,51.80
2016,10,07,00,46,53.10
2016,10,07,00,47,42.30
2016,10,07,00,48,40.60
2016,10,07,00,49,52.80
2016,10,07,00,50,41.20
2016,10,07,00,51,45.40
2016,10,07,00,52,52.80
2016,10,07,00,53,49.70
2016,10,07,00,54,46.90
2016,10,07,00,55,39.50
2016,10,07,00,56,45.70
2016,10,07,00,57,55.80
2016,10,07,00,58,49.80
2016,10,07,00,59,47.60
2016,10,07,01,00,33.80
2016,10,07,01,01,38.10
2016,10,07,01,02,51.00
2016,10,07,01,03,60.50
2016,10,07,01,04,47.50
2016,10,07,01,05,45.70
2016,10,07,01,06,49.20
2016,10,07,01,07,55.80
2016,10,07,01,08,45.90
2016,10,07,01,09,42.40
2016,10,07,01,10,43.40
2016,10,07,01,11,48.20
2016,10,07,01,12,52.30
2016,10,07,01,13,44.30
2016,10,07,01,14,37.70
2016,10,07,01,15,30.40
2016,10,07,01,16,46.30
2016,10,07,01,17,44.90
2016,10,07,01,18,34.00
2016,10,07,01,19,33.60
2016,10,07,01,20,38.40
2016,10,07,01,21,34.10
2016,10,07,01,22,44.70
2016,10,07,01,23,40.10
2016,10,07,01,24,52.70
2016,10,07,01,25,45.40
2016,10,07,01,26,41.80
2016,10,07,01,27,37.80
2016,10,07,01,28,40.90
2016,10,07,01,29,46.50
2016,10,07,01,30,37.20
2016,10,07,01,31,39.70
2016,10,07,01,32,39.00
2016,10,07,01,33,38.70
2016,10,07,01,34,43.20
2016,10,07,01,35,45.10
2016,10,07,01,36,50.80
2016,10,07,01,37,44.60
2016,10,07,01,38,45.80
2016,10,07,01,39,44.30
2016,10,07,01,40,42.70
2016,10,07,01,41,40.70
2016,10,07,01,42,42.20
2016,10,07,01,43,41.40
2016,10,07,01,44,38.40
2016,10,07,01,45,41.70
2016,10,07,01,46,45.60
2016,10,07,01,47,48.20
2016,10,07,01,48,42.20
2016,10,07,01,49,38.60
2016,10,07,01,50,36.90
2016,10,07,01,51,39.20
2016,10,07,01,52,45.90
2016,10,07,01,53,40.20
2016,10,07,01,54,38.20
2016,10,07,01,55,40.10
2016,10,07,01,56,35.50
2016,10,07,01,57,30.80
2016,10,07,01,58,38.10
2016,10,07,01,59,41.30
2016,10,07,02,00,32.90
2016,10,07,02,01,28.50
2016,10,07,02,02,29.00
2016,10,07,02,03,24.40
2016,10,07,02,04,27.10
2016,10,07,02,05,26.30
2016,10,07,02,06,28.70
2016,10,07,02,07,24.60
2016,10,07,02,08,26.40
2016,10,07,02,09,31.50
2016,10,07,02,10,33.10
2016,10,07,02,11,38.20
2016,10,07,02,12,42.60
2016,10,07,02,13,20.60
2016,10,07,02,14,25.30
2016,10,07,02,15,25.80
2016,10,07,02,16,17.80
2016,10,07,02,17,29.40
2016,10,07,02,18,28.80
2016,10,07,02,19,21.60
2016,10,07,02,20,18.60
2016,10,07,02,21,13.30
2016,10,07,02,22,10.80
2016,10,07,02,23,11.90
2016,10,07,02,24,13.90
2016,10,07,02,25,15.00
2016,10,07,02,26,13.20
2016,10,07,02,27,12.90
2016,10,07,02,28,12.90
2016,10,07,02,29,12.90
2016,10,07,02,30,11.10
2016,10,07,02,31,10.10
2016,10,07,02,32,10.50
2016,10,07,02,33,8.90
2016,10,07,02,34,11.60
2016,10,07,02,35,16.90
2016,10,07,02,36,15.90
2016,10,07,02,37,12.30
2016,10,07,02,38,15.00
2016,10,07,02,39,23.30
2016,10,07,02,40,20.10
2016,10,07,02,41,10.00
2016,10,07,02,42,8.60
2016,10,07,02,43,9.40
2016,10,07,02,44,6.90
2016,10,07,02,45,6.50
2016,10,07,02,46,7.10
2016,10,07,02,47,6.10
2016,10,07,02,48,5.40
2016,10,07,02,49,4.90
2016,10,07,02,50,4.00
2016,10,07,02,51,6.30
2016,10,07,02,52,17.60
2016,10,07,02,53,12.50
2016,10,07,02,54,9.30
2016,10,07,02,55,12.40
2016,10,07,02,56,5.60
2016,10,07,02,57,19.40
2016,10,07,02,58,14.90
2016,10,07,02,59,15.50
2016,10,07,03,00,10.20
2016,10,07,03,01,13.50
2016,10,07,03,02,7.20
2016,10,07,03,03,9.70
2016,10,07,03,04,7.80
2016,10,07,03,05,10.30
2016,10,07,03,06,14.00
2016,10,07,03,07,10.50
2016,10,07,03,08,6.80
2016,10,07,03,09,9.30
2016,10,07,03,10,11.40
2016,10,07,03,11,14.60
2016,10,07,03,12,18.70
2016,10,07,03,13,15.30
2016,10,07,03,14,14.20
2016,10,07,03,15,20.00
2016,10,07,03,16,29.30
2016,10,07,03,17,27.90
2016,10,07,03,18,25.40
2016,10,07,03,19,19.50
2016,10,07,03,20,19.00
2016,10,07,03,21,25.70
2016,10,07,03,22,24.20
2016,10,07,03,23,18.20
2016,10,07,03,24,16.70
2016,10,07,03,25,14.00
2016,10,07,03,26,26.20
2016,10,07,03,27,20.60
2016,10,07,03,28,24.60
2016,10,07,03,29,25.90
2016,10,07,03,30,25.20
2016,10,07,03,31,24.80
2016,10,07,03,32,15.30
2016,10,07,03,33,20.30
2016,10,07,03,34,20.40
2016,10,07,03,35,29.00
2016,10,07,03,36,23.50
2016,10,07,03,37,17.70
2016,10,07,03,38,16.20
2016,10,07,03,39,18.10
2016,10,07,03,40,18.80
2016,10,07,03,41,18.00
2016,10,07,03,42,21.50
2016,10,07,03,43,19.50
2016,10,07,03,44,18.70
2016,10,07,03,45,25.50
2016,10,07,03,46,20.10
2016,10,07,03,47,14.70
2016,10,07,03,48,16.10
2016,10,07,03,49,23.40
2016,10,07,03,50,20.60
2016,10,07,03,51,18.50
2016,10,07,03,52,18.90
2016,10,07,03,53,23.30
2016,10,07,03,54,17.10
2016,10,07,03,55,10.20
2016,10,07,03,56,17.30
2016,10,07,03,57,22.70
2016,10,07,03,58,17.80
2016,10,07,03,59,16.60
2016,10,07,04,00,13.80
2016,10,07,04,01,18.40
2016,10,07,04,02,21.30
2016,10,07,04,03,25.20
2016,10,07,04,04,16.50
2016,10,07,04,05,19.10
2016,10,07,04,06,20.40
2016,10,07,04,07,21.50
2016,10,07,04,08,15.60
2016,10,07,04,09,21.60
2016,10,07,04,10,18.90
2016,10,07,04,11,14.70
2016,10,07,04,12,20.20
2016,10,07,04,13,18.80
2016,10,07,04,14,24.10
2016,10,07,04,15,16.30
2016,10,07,04,16,18.40
2016,10,07,04,17,20.10
2016,10,07,04,18,21.50
2016,10,07,04,19,16.80
2016,10,07,04,20,18.30
2016,10,07,04,21,23.40
2016,10,07,04,22,15.30
2016,10,07,04,23,12.90
2016,10,07,04,24,23.60
2016,10,07,04,25,20.40
2016,10,07,04,26,21.50
2016,10,07,04,27,29.90
2016,10,07,04,28,23.40
2016,10,07,04,29,23.80
2016,10,07,04,30,16.50
2016,10,07,04,31,14.20
2016,10,07,04,32,17.50
2016,10,07,04,33,17.50
2016,10,07,04,34,20.00
2016,10,07,04,35,15.30
2016,10,07,04,36,19.10
2016,10,07,04,37,27.40
2016,10,07,04,38,19.00
2016,10,07,04,39,28.90
2016,10,07,04,40,21.80
2016,10,07,04,41,17.60
2016,10,07,04,42,26.90
2016,10,07,04,43,17.20
2016,10,07,04,44,15.30
2016,10,07,04,45,27.40
2016,10,07,04,46,16.70
2016,10,07,04,47,19.40
2016,10,07,04,48,22.70
2016,10,07,04,49,25.60
2016,10,07,04,50,18.80
2016,10,07,04,51,20.70
2016,10,07,04,52,19.30
2016,10,07,04,53,24.60
2016,10,07,04,54,15.40
2016,10,07,04,55,28.30
2016,10,07,04,56,18.50
2016,10,07,04,57,25.50
2016,10,07,04,58,32.20
2016,10,07,04,59,30.00
2016,10,07,05,00,27.20
2016,10,07,05,01,22.00
2016,10,07,05,02,26.70
2016,10,07,05,03,19.30
2016,10,07,05,04,21.40
2016,10,07,05,05,28.70
2016,10,07,05,06,25.00
2016,10,07,05,07,26.20
2016,10,07,05,08,24.30
2016,10,07,05,09,15.70
2016,10,07,05,10,23.00
2016,10,07,05,11,29.00
2016,10,07,05,12,18.90
2016,10,07,05,13,21.10
2016,10,07,05,14,19.30
2016,10,07,05,15,21.80
2016,10,07,05,16,23.00
2016,10,07,05,17,25.20
2016,10,07,05,18,29.20
2016,10,07,05,19,16.00
2016,10,07,05,20,14.90
2016,10,07,05,21,25.90
2016,10,07,05,22,24.40
2016,10,07,05,23,24.00
2016,10,07,05,24,28.70
2016,10,07,05,25,23.30
2016,10,07,05,26,19.10
2016,10,07,05,27,22.40
2016,10,07,05,28,30.40
2016,10,07,05,29,26.50
2016,10,07,05,30,27.50
2016,10,07,05,31,25.40
2016,10,07,05,32,29.30
2016,10,07,05,33,18.30
2016,10,07,05,34,30.50
2016,10,07,05,35,23.90
2016,10,07,05,36,28.30
2016,10,07,05,37,19.50
2016,10,07,05,38,24.10
2016,10,07,05,39,26.00
2016,10,07,05,40,25.30
2016,10,07,05,41,35.90
2016,10,07,05,42,24.10
2016,10,07,05,43,27.70
2016,10,07,05,44,30.60
2016,10,07,05,45,22.70
2016,10,07,05,46,18.70
2016,10,07,05,47,17.00
2016,10,07,05,48,31.10
2016,10,07,05,49,30.70
2016,10,07,05,50,30.50
2016,10,07,05,51,35.50
2016,10,07,05,52,25.20
2016,10,07,05,53,19.60
2016,10,07,05,54,16.00
2016,10,07,05,55,28.60
2016,10,07,05,56,26.90
2016,10,07,05,57,33.50
2016,10,07,05,58,26.50
2016,10,07,05,59,34.80
2016,10,07,06,00,24.00
2016,10,07,06,01,23.20
2016,10,07,06,02,31.00
2016,10,07,06,03,20.50
2016,10,07,06,04,25.80
2016,10,07,06,05,25.70
2016,10,07,06,06,24.90
2016,10,07,06,07,19.10
2016,10,07,06,08,19.50
2016,10,07,06,09,22.50
2016,10,07,06,10,25.40
2016,10,07,06,11,21.10
2016,10,07,06,12,25.90
2016,10,07,06,13,27.20
2016,10,07,06,14,28.10
2016,10,07,06,15,20.80
2016,10,07,06,16,23.50
2016,10,07,06,17,18.00
2016,10,07,06,18,22.10
2016,10,07,06,19,25.60
2016,10,07,06,20,26.40
2016,10,07,06,21,24.30
2016,10,07,06,22,21.10
2016,10,07,06,23,24.60
2016,10,07,06,24,21.70
2016,10,07,06,25,25.70
2016,10,07,06,26,20.90
2016,10,07,06,27,22.20
2016,10,07,06,28,16.80
2016,10,07,06,29,27.90
2016,10,07,06,30,24.30
2016,10,07,06,31,20.80
2016,10,07,06,32,17.80
2016,10,07,06,33,32.00
2016,10,07,06,34,33.70
2016,10,07,06,35,21.90
2016,10,07,06,36,27.40
2016,10,07,06,37,23.30
2016,10,07,06,38,27.20
2016,10,07,06,39,24.00
2016,10,07,06,40,24.00
2016,10,07,06,41,14.00
2016,10,07,06,42,22.30
2016,10,07,06,43,25.00
2016,10,07,06,44,25.60
2016,10,07,06,45,25.30
2016,10,07,06,46,29.80
2016,10,07,06,47,32.50
2016,10,07,06,48,27.90
2016,10,07,06,49,24.60
2016,10,07,06,50,21.10
2016,10,07,06,51,27.60
2016,10,07,06,52,22.40
2016,10,07,06,53,29.40
2016,10,07,06,54,25.50
2016,10,07,06,55,25.20
2016,10,07,06,56,27.00
2016,10,07,06,57,25.30
2016,10,07,06,58,19.60
2016,10,07,06,59,27.00
2016,10,07,07,00,26.40
2016,10,07,07,01,30.20
2016,10,07,07,02,27.50
2016,10,07,07,03,33.00
2016,10,07,07,04,30.30
2016,10,07,07,05,31.60
2016,10,07,07,06,32.40
2016,10,07,07,07,22.70
2016,10,07,07,08,31.70
2016,10,07,07,09,22.10
2016,10,07,07,10,21.40
2016,10,07,07,11,31.90
2016,10,07,07,12,26.10
2016,10,07,07,13,28.30
2016,10,07,07,14,22.90
2016,10,07,07,15,28.90
2016,10,07,07,16,25.00
2016,10,07,07,17,26.50
2016,10,07,07,18,29.20
2016,10,07,07,19,32.50
2016,10,07,07,20,24.40
2016,10,07,07,21,15.70
2016,10,07,07,22,20.00
2016,10,07,07,23,22.70
2016,10,07,07,24,24.60
2016,10,07,07,25,22.10
2016,10,07,07,26,26.30
2016,10,07,07,27,18.40
2016,10,07,07,28,28.10
2016,10,07,07,29,18.60
2016,10,07,07,30,17.70
2016,10,07,07,31,20.80
2016,10,07,07,32,23.00
2016,10,07,07,33,26.40
2016,10,07,07,34,19.80
2016,10,07,07,35,15.90
2016,10,07,07,36,18.70
2016,10,07,07,37,22.30
2016,10,07,07,38,20.30
2016,10,07,07,39,14.20
2016,10,07,07,40,19.90
2016,10,07,07,41,28.80
2016,10,07,07,42,16.00
2016,10,07,07,43,29.00
2016,10,07,07,44,20.60
2016,10,07,07,45,20.70
2016,10,07,07,46,14.20
2016,10,07,07,47,17.80
2016,10,07,07,48,22.80
2016,10,07,07,49,18.60
2016,10,07,07,50,11.40
2016,10,07,07,51,21.20
2016,10,07,07,52,19.70
2016,10,07,07,53,25.40
2016,10,07,07,54,29.10
2016,10,07,07,55,22.70
2016,10,07,07,56,27.30
2016,10,07,07,57,23.80
2016,10,07,07,58,32.60
2016,10,07,07,59,23.90
2016,10,07,08,00,20.10
2016,10,07,08,01,15.10
2016,10,07,08,02,27.30
2016,10,07,08,03,26.20
2016,10,07,08,04,16.10
2016,10,07,08,05,18.60
2016,10,07,08,06,24.40
2016,10,07,08,07,21.60
2016,10,07,08,08,20.30
2016,10,07,08,09,13.80
2016,10,07,08,10,19.10
2016,10,07,08,11,27.90
2016,10,07,08,12,27.20
2016,10,07,08,13,25.10
2016,10,07,08,14,22.80
2016,10,07,08,15,29.80
2016,10,07,08,16,19.50
2016,10,07,08,17,30.10
2016,10,07,08,18,18.60
2016,10,07,08,19,22.50
2016,10,07,08,20,22.80
2016,10,07,08,21,20.10
2016,10,07,08,22,26.20
2016,10,07,08,23,23.50
2016,10,07,08,24,24.60
2016,10,07,08,25,17.40
2016,10,07,08,26,21.60
2016,10,07,08,27,27.10
2016,10,07,08,28,25.20
2016,10,07,08,29,19.50
2016,10,07,08,30,18.80
2016,10,07,08,31,30.70
2016,10,07,08,32,23.70
2016,10,07,08,33,18.90
2016,10,07,08,34,27.30
2016,10,07,08,35,19.90
2016,10,07,08,36,26.20
2016,10,07,08,37,26.00
2016,10,07,08,38,25.30
2016,10,07,08,39,25.00
2016,10,07,08,40,19.80
2016,10,07,08,41,23.40
2016,10,07,08,42,18.50
2016,10,07,08,43,18.90
2016,10,07,08,44,21.10
2016,10,07,08,45,23.40
2016,10,07,08,46,30.10
2016,10,07,08,47,22.10
2016,10,07,08,48,26.40
2016,10,07,08,49,17.50
2016,10,07,08,50,19.00
2016,10,07,08,51,27.20
2016,10,07,08,52,28.30
2016,10,07,08,53,18.80
2016,10,07,08,54,20.50
2016,10,07,08,55,16.90
2016,10,07,08,56,27.10
2016,10,07,08,57,26.60
2016,10,07,08,58,20.10
2016,10,07,08,59,22.90
2016,10,07,09,00,19.00
2016,10,07,09,01,20.70
2016,10,07,09,02,22.10
2016,10,07,09,03,14.70
2016,10,07,09,04,17.00
2016,10,07,09,05,21.50
2016,10,07,09,06,26.70
2016,10,07,09,07,27.50
2016,10,07,09,08,27.60
2016,10,07,09,09,23.80
2016,10,07,09,10,16.10
2016,10,07,09,11,21.00
2016,10,07,09,12,14.80
2016,10,07,09,13,23.20
2016,10,07,09,14,25.00
2016,10,07,09,15,22.50
2016,10,07,09,16,22.80
2016,10,07,09,17,20.40
2016,10,07,09,18,18.10
2016,10,07,09,19,19.40
2016,10,07,09,20,10.60
2016,10,07,09,21,15.80
2016,10,07,09,22,19.90
2016,10,07,09,23,14.90
2016,10,07,09,24,20.40
2016,10,07,09,25,17.90
2016,10,07,09,26,19.20
2016,10,07,09,27,10.30
2016,10,07,09,28,23.90
2016,10,07,09,29,15.00
2016,10,07,09,30,10.70
2016,10,07,09,31,15.30
2016,10,07,09,32,17.10
2016,10,07,09,33,21.40
2016,10,07,09,34,14.90
2016,10,07,09,35,13.20
2016,10,07,09,36,17.90
2016,10,07,09,37,16.70
2016,10,07,09,38,11.40
2016,10,07,09,39,7.20
2016,10,07,09,40,10.70
2016,10,07,09,41,8.70
2016,10,07,09,42,7.20
2016,10,07,09,43,9.70
2016,10,07,09,44,11.70
2016,10,07,09,45,14.10
2016,10,07,09,46,10.60
2016,10,07,09,47,10.20
2016,10,07,09,48,6.60
2016,10,07,09,49,12.80
2016,10,07,09,50,13.80
2016,10,07,09,51,12.30
2016,10,07,09,52,18.80
2016,10,07,09,53,13.10
2016,10,07,09,54,6.30
2016,10,07,09,55,9.10
2016,10,07,09,56,12.80
2016,10,07,09,57,14.30
2016,10,07,09,58,14.90
2016,10,07,09,59,16.40
2016,10,07,10,00,13.70
2016,10,07,10,01,9.90
2016,10,07,10,02,9.40
2016,10,07,10,03,9.50
2016,10,07,10,04,15.00
2016,10,07,10,05,12.40
2016,10,07,10,06,12.80
2016,10,07,10,07,13.60
2016,10,07,10,08,10.30
2016,10,07,10,09,3.50
2016,10,07,10,10,7.70
2016,10,07,10,11,3.40
2016,10,07,10,12,14.80
2016,10,07,10,13,12.00
2016,10,07,10,14,11.30
2016,10,07,10,15,7.40
2016,10,07,10,16,14.80
2016,10,07,10,17,9.90
2016,10,07,10,18,9.70
2016,10,07,10,19,5.40
2016,10,07,10,20,14.30
2016,10,07,10,21,11.30
2016,10,07,10,22,10.10
2016,10,07,10,23,10.80
2016,10,07,10,24,10.20
2016,10,07,10,25,11.40
2016,10,07,10,26,15.70
2016,10,07,10,27,13.90
2016,10,07,10,28,11.90
2016,10,07,10,29,15.80
2016,10,07,10,30,6.00
2016,10,07,10,31,7.30
2016,10,07,10,32,5.30
2016,10,07,10,33,6.00
2016,10,07,10,34,6.10
2016,10,07,10,35,8.30
2016,10,07,10,36,9.80
2016,10,07,10,37,7.00
2016,10,07,10,38,17.40
2016,10,07,10,39,18.80
2016,10,07,10,40,8.60
2016,10,07,10,41,11.60
2016,10,07,10,42,17.20
2016,10,07,10,43,10.70
2016,10,07,10,44,8.80
2016,10,07,10,45,9.30
2016,10,07,10,46,16.10
2016,10,07,10,47,13.80
2016,10,07,10,48,14.10
2016,10,07,10,49,9.50
2016,10,07,10,50,11.80
2016,10,07,10,51,16.40
2016,10,07,10,52,17.50
2016,10,07,10,53,16.70
2016,10,07,10,54,17.20
2016,10,07,10,55,22.80
2016,10,07,10,56,18.10
2016,10,07,10,57,15.50
2016,10,07,10,58,4.40
2016,10,07,10,59,12.00
2016,10,07,11,00,21.90
2016,10,07,11,01,21.40
2016,10,07,11,02,16.40
2016,10,07,11,03,16.60
2016,10,07,11,04,25.60
2016,10,07,11,05,10.00
2016,10,07,11,06,17.30
2016,10,07,11,07,13.80
2016,10,07,11,08,12.00
2016,10,07,11,09,7.80
2016,10,07,11,10,7.20
2016,10,07,11,11,10.10
2016,10,07,11,12,6.60
2016,10,07,11,13,13.50
2016,10,07,11,14,17.60
2016,10,07,11,15,11.10
2016,10,07,11,16,15.60
2016,10,07,11,17,16.60
2016,10,07,11,18,13.80
2016,10,07,11,19,17.40
2016,10,07,11,20,7.60
2016,10,07,11,21,7.90
2016,10,07,11,22,10.00
2016,10,07,11,23,18.70
2016,10,07,11,24,6.50
2016,10,07,11,25,5.30
2016,10,07,11,26,7.40
2016,10,07,11,27,3.90
2016,10,07,11,28,13.70
2016,10,07,11,29,12.40
2016,10,07,11,30,5.80
2016,10,07,11,31,12.20
2016,10,07,11,32,12.50
2016,10,07,11,33,9.50
2016,10,07,11,34,4.90
2016,10,07,11,35,7.60
2016,10,07,11,36,8.80
2016,10,07,11,37,10.90
2016,10,07,11,38,6.00
2016,10,07,11,39,5.30
2016,10,07,11,40,10.10
2016,10,07,11,41,15.50
2016,10,07,11,42,7.10
2016,10,07,11,43,2.90
2016,10,07,11,44,8.80
2016,10,07,11,45,16.50
2016,10,07,11,46,17.60
2016,10,07,11,47,14.30
2016,10,07,11,48,13.60
2016,10,07,11,49,14.20
2016,10,07,11,50,9.40
2016,10,07,11,51,16.40
2016,10,07,11,52,12.70
2016,10,07,11,53,14.20
2016,10,07,11,54,12.00
2016,10,07,11,55,6.60
2016,10,07,11,56,1.10
2016,10,07,11,57,4.00
2016,10,07,11,58,5.60
2016,10,07,11,59,1.20
2016,10,07,12,00,6.50
2016,10,07,12,01,8.10
2016,10,07,12,02,6.90
2016,10,07,12,03,9.70
2016,10,07,12,04,14.80
2016,10,07,12,05,10.20
2016,10,07,12,06,17.20
2016,10,07,12,07,17.50
2016,10,07,12,08,20.40
2016,10,07,12,09,10.20
2016,10,07,12,10,13.80
2016,10,07,12,11,13.40
2016,10,07,12,12,16.40
2016,10,07,12,13,17.10
2016,10,07,12,14,16.60
2016,10,07,12,15,17.30
2016,10,07,12,16,17.90
2016,10,07,12,17,10.80
2016,10,07,12,18,17.80
2016,10,07,12,19,15.40
2016,10,07,12,20,19.30
2016,10,07,12,21,22.00
2016,10,07,12,22,19.10
2016,10,07,12,23,16.90
2016,10,07,12,24,22.20
2016,10,07,12,25,14.90
2016,10,07,12,26,20.40
2016,10,07,12,27,15.20
2016,10,07,12,28,17.60
2016,10,07,12,29,15.30
2016,10,07,12,30,9.90
2016,10,07,12,31,12.60
2016,10,07,12,32,22.00
2016,10,07,12,33,25.20
2016,10,07,12,34,17.80
2016,10,07,12,35,14.80
2016,10,07,12,36,11.70
2016,10,07,12,37,13.60
2016,10,07,12,38,14.90
2016,10,07,12,39,18.80
2016,10,07,12,40,18.50
2016,10,07,12,41,20.20
2016,10,07,12,42,15.50
2016,10,07,12,43,17.00
2016,10,07,12,44,10.40
2016,10,07,12,45,13.20
2016,10,07,12,46,20.10
2016,10,07,12,47,15.10
2016,10,07,12,48,13.90
2016,10,07,12,49,16.60
2016,10,07,12,50,12.40
2016,10,07,12,51,17.20
2016,10,07,12,52,10.90
2016,10,07,12,53,23.60
2016,10,07,12,54,19.90
2016,10,07,12,55,20.30
2016,10,07,12,56,14.30
2016,10,07,12,57,18.20
2016,10,07,12,58,14.00
2016,10,07,12,59,16.50
2016,10,07,13,00,17.90
2016,10,07,13,01,15.90
2016,10,07,13,02,12.50
2016,10,07,13,03,19.00
2016,10,07,13,04,16.90
2016,10,07,13,05,15.90
2016,10,07,13,06,12.10
2016,10,07,13,07,17.50
2016,10,07,13,08,15.30
2016,10,07,13,09,15.80
2016,10,07,13,10,16.80
2016,10,07,13,11,13.40
2016,10,07,13,12,15.40
2016,10,07,13,13,21.00
2016,10,07,13,14,15.40
2016,10,07,13,15,11.20
2016,10,07,13,16,15.90
2016,10,07,13,17,12.40
2016,10,07,13,18,14.80
2016,10,07,13,19,8.20
2016,10,07,13,20,17.80
2016,10,07,13,21,10.60
2016,10,07,13,22,8.50
2016,10,07,13,23,12.50
2016,10,07,13,24,13.00
2016,10,07,13,25,14.30
2016,10,07,13,26,19.10
2016,10,07,13,27,18.40
2016,10,07,13,28,17.00
2016,10,07,13,29,14.20
2016,10,07,13,30,12.30
2016,10,07,13,31,14.70
2016,10,07,13,32,14.00
2016,10,07,13,33,10.40
2016,10,07,13,34,17.00
2016,10,07,13,35,17.90
2016,10,07,13,36,14.20
2016,10,07,13,37,19.00
2016,10,07,13,38,18.20
2016,10,07,13,39,18.80
2016,10,07,13,40,11.70
2016,10,07,13,41,15.30
2016,10,07,13,42,18.00
2016,10,07,13,43,21.10
2016,10,07,13,44,17.90
2016,10,07,13,45,11.50
2016,10,07,13,46,9.80
2016,10,07,13,47,17.40
2016,10,07,13,48,16.20
2016,10,07,13,49,12.00
2016,10,07,13,50,10.90
2016,10,07,13,51,9.40
2016,10,07,13,52,19.30
2016,10,07,13,53,15.70
2016,10,07,13,54,15.10
2016,10,07,13,55,13.20
2016,10,07,13,56,12.80
2016,10,07,13,57,14.50
2016,10,07,13,58,8.40
2016,10,07,13,59,8.50
2016,10,07,14,00,14.50
2016,10,07,14,01,9.50
2016,10,07,14,02,13.60
2016,10,07,14,03,14.80
2016,10,07,14,04,18.70
2016,10,07,14,05,9.10
2016,10,07,14,06,10.00
2016,10,07,14,07,15.80
2016,10,07,14,08,11.50
2016,10,07,14,09,13.30
2016,10,07,14,10,15.40
2016,10,07,14,11,16.30
2016,10,07,14,12,9.80
2016,10,07,14,13,14.40
2016,10,07,14,14,15.50
2016,10,07,14,15,15.20
2016,10,07,14,16,15.40
2016,10,07,14,17,18.70
2016,10,07,14,18,16.40
2016,10,07,14,19,17.20
2016,10,07,14,20,17.50
2016,10,07,14,21,13.30
2016,10,07,14,22,17.20
2016,10,07,14,23,15.30
2016,10,07,14,24,13.40
2016,10,07,14,25,6.20
2016,10,07,14,26,11.50
2016,10,07,14,27,24.10
2016,10,07,14,28,21.00
2016,10,07,14,29,17.80
2016,10,07,14,30,9.90
2016,10,07,14,31,7.00
2016,10,07,14,32,11.70
2016,10,07,14,33,15.10
2016,10,07,14,34,13.00
2016,10,07,14,35,20.70
2016,10,07,14,36,18.70
2016,10,07,14,37,16.30
2016,10,07,14,38,13.40
2016,10,07,14,39,15.50
2016,10,07,14,40,22.50
2016,10,07,14,41,21.00
2016,10,07,14,42,17.80
2016,10,07,14,43,16.40
2016,10,07,14,44,17.90
2016,10,07,14,45,18.30
2016,10,07,14,46,20.70
2016,10,07,14,47,18.80
2016,10,07,14,48,14.50
2016,10,07,14,49,19.10
2016,10,07,14,50,15.50
2016,10,07,14,51,21.40
2016,10,07,14,52,20.20
2016,10,07,14,53,17.20
2016,10,07,14,54,12.90
2016,10,07,14,55,13.80
2016,10,07,14,56,15.70
2016,10,07,14,57,12.00
2016,10,07,14,58,12.60
2016,10,07,14,59,19.40
2016,10,07,15,00,15.70
2016,10,07,15,01,11.10
2016,10,07,15,02,13.60
2016,10,07,15,03,14.30
2016,10,07,15,04,10.20
2016,10,07,15,05,15.60
2016,10,07,15,06,19.00
2016,10,07,15,07,19.80
2016,10,07,15,08,15.80
2016,10,07,15,09,13.80
2016,10,07,15,10,17.00
2016,10,07,15,11,17.10
2016,10,07,15,12,12.10
2016,10,07,15,13,11.20
2016,10,07,15,14,12.30
2016,10,07,15,15,13.50
2016,10,07,15,16,8.60
2016,10,07,15,17,8.70
2016,10,07,15,18,12.20
2016,10,07,15,19,11.00
2016,10,07,15,20,10.90
2016,10,07,15,21,12.90
2016,10,07,15,22,13.70
2016,10,07,15,23,13.40
2016,10,07,15,24,10.50
2016,10,07,15,25,9.20
2016,10,07,15,26,8.70
2016,10,07,15,27,9.70
2016,10,07,15,28,15.60
2016,10,07,15,29,19.80
2016,10,07,15,30,18.70
2016,10,07,15,31,22.80
2016,10,07,15,32,21.00
2016,10,07,15,33,12.90
2016,10,07,15,34,18.20
2016,10,07,15,35,17.20
2016,10,07,15,36,12.80
2016,10,07,15,37,9.50
2016,10,07,15,38,13.20
2016,10,07,15,39,17.60
2016,10,07,15,40,15.90
2016,10,07,15,41,13.80
2016,10,07,15,42,9.00
2016,10,07,15,43,13.40
2016,10,07,15,44,15.50
2016,10,07,15,45,13.90
2016,10,07,15,46,9.50
2016,10,07,15,47,13.50
2016,10,07,15,48,7.10
2016,10,07,15,49,9.80
2016,10,07,15,50,12.30
2016,10,07,15,51,15.40
2016,10,07,15,52,13.80
2016,10,07,15,53,15.00
2016,10,07,15,54,9.70
2016,10,07,15,55,10.60
2016,10,07,15,56,15.60
2016,10,07,15,57,14.20
2016,10,07,15,58,12.90
2016,10,07,15,59,10.90
2016,10,07,16,00,6.70
2016,10,07,16,01,6.20
2016,10,07,16,02,5.90
2016,10,07,16,03,9.80
2016,10,07,16,04,9.10
2016,10,07,16,05,5.30
2016,10,07,16,06,6.50
2016,10,07,16,07,13.30
2016,10,07,16,08,11.90
2016,10,07,16,09,12.80
2016,10,07,16,10,15.40
2016,10,07,16,11,12.40
2016,10,07,16,12,10.80
2016,10,07,16,13,10.10
2016,10,07,16,14,12.70
2016,10,07,16,15,11.80
2016,10,07,16,16,9.30
2016,10,07,16,17,11.60
2016,10,07,16,18,8.30
2016,10,07,16,19,5.00
2016,10,07,16,20,7.50
2016,10,07,16,21,9.70
2016,10,07,16,22,4.00
2016,10,07,16,23,4.40
2016,10,07,16,24,5.00
2016,10,07,16,25,10.90
2016,10,07,16,26,6.60
2016,10,07,16,27,4.40
2016,10,07,16,28,3.30
2016,10,07,16,29,8.80
2016,10,07,16,30,9.90
2016,10,07,16,31,8.40
2016,10,07,16,32,4.80
2016,10,07,16,33,5.70
2016,10,07,16,34,4.70
2016,10,07,16,35,4.40
2016,10,07,16,36,5.80
2016,10,07,16,37,6.00
2016,10,07,16,38,4.60
2016,10,07,16,39,6.20
2016,10,07,16,40,4.70
2016,10,07,16,41,2.10
2016,10,07,16,42,1.40
2016,10,07,16,43,0.10
2016,10,07,16,44,0.00
2016,10,07,16,45,0.20
2016,10,07,16,46,3.80
2016,10,07,16,47,3.30
2016,10,07,16,48,0.90
2016,10,07,16,49,1.80
2016,10,07,16,50,4.20
2016,10,07,16,51,4.70
2016,10,07,16,52,3.00
2016,10,07,16,53,3.70
2016,10,07,16,54,3.40
2016,10,07,16,55,3.30
2016,10,07,16,56,3.70
2016,10,07,16,57,1.60
2016,10,07,16,58,2.40
2016,10,07,16,59,3.50
2016,10,07,17,00,4.30
2016,10,07,17,01,5.70
2016,10,07,17,02,2.40
2016,10,07,17,03,3.00
2016,10,07,17,04,9.10
2016,10,07,17,05,9.90
2016,10,07,17,06,8.50
2016,10,07,17,07,7.20
2016,10,07,17,08,5.70
2016,10,07,17,09,3.90
2016,10,07,17,10,2.20
2016,10,07,17,11,2.70
2016,10,07,17,12,1.10
2016,10,07,17,13,2.20
2016,10,07,17,14,3.40
2016,10,07,17,15,7.30
2016,10,07,17,16,8.10
2016,10,07,17,17,9.70
2016,10,07,17,18,9.70
2016,10,07,17,19,11.10
2016,10,07,17,20,10.80
2016,10,07,17,21,6.90
2016,10,07,17,22,6.60
2016,10,07,17,23,8.80
2016,10,07,17,24,8.50
2016,10,07,17,25,10.60
2016,10,07,17,26,9.50